TimeEDT,TemperatureF,Dew PointF,Humidity,Sea Level PressureIn,VisibilityMPH,Wind Direction,Wind SpeedMPH,Gust SpeedMPH,PrecipitationIn,Events,Conditions,WindDirDegrees,DateUTC
12:15 AM,46.4,42.8,87,29.76,6.0,SSW,10.4,-,N/A,,Overcast,210,2013-05-12 04:15:00
12:35 AM,46.4,42.8,87,29.76,8.0,SW,9.2,16.1,N/A,,Overcast,220,2013-05-12 04:35:00
12:55 AM,46.4,42.8,87,29.78,8.0,West,28.8,34.5,N/A,,Overcast,280,2013-05-12 04:55:00
1:15 AM,42.8,37.4,81,29.78,10.0,WNW,17.3,26.5,N/A,,Overcast,290,2013-05-12 05:15:00
1:35 AM,42.8,37.4,81,29.79,10.0,West,15.0,19.6,N/A,,Overcast,280,2013-05-12 05:35:00
1:55 AM,41.0,37.4,87,29.80,10.0,West,15.0,26.5,N/A,,Overcast,270,2013-05-12 05:55:00
2:15 AM,41.0,35.6,81,29.80,10.0,West,13.8,25.3,N/A,,Overcast,280,2013-05-12 06:15:00
2:35 AM,39.2,35.6,87,29.80,10.0,WNW,20.7,26.5,N/A,,Overcast,290,2013-05-12 06:35:00
2:55 AM,37.4,33.8,87,29.81,10.0,West,12.7,25.3,N/A,,Overcast,280,2013-05-12 06:55:00
3:15 AM,37.4,30.2,75,29.81,10.0,WNW,13.8,21.9,N/A,,Overcast,290,2013-05-12 07:15:00
3:35 AM,35.6,30.2,81,29.81,10.0,WNW,17.3,20.7,N/A,,Overcast,300,2013-05-12 07:35:00
3:55 AM,35.6,28.4,75,29.82,10.0,WNW,13.8,19.6,N/A,,Overcast,300,2013-05-12 07:55:00
4:15 AM,35.6,28.4,75,29.82,10.0,WNW,9.2,20.7,N/A,,Overcast,290,2013-05-12 08:15:00
4:35 AM,33.8,28.4,81,29.82,10.0,WNW,8.1,-,N/A,,Scattered Clouds,290,2013-05-12 08:35:00
4:55 AM,33.8,28.4,81,29.82,10.0,West,4.6,-,N/A,,Clear,260,2013-05-12 08:55:00
5:35 AM,33.8,28.4,81,29.82,10.0,WSW,5.8,-,N/A,,Partly Cloudy,250,2013-05-12 09:35:00
5:55 AM,33.8,28.4,81,29.82,10.0,WSW,6.9,-,N/A,,Mostly Cloudy,250,2013-05-12 09:55:00
6:15 AM,33.8,28.4,81,29.82,10.0,Calm,Calm,-,N/A,,Scattered Clouds,0,2013-05-12 10:15:00
6:35 AM,33.8,28.4,81,29.82,10.0,SW,5.8,-,N/A,,Mostly Cloudy,230,2013-05-12 10:35:00
6:55 AM,33.8,30.2,87,29.82,10.0,SW,6.9,-,N/A,,Scattered Clouds,220,2013-05-12 10:55:00
7:15 AM,35.6,30.2,81,29.82,10.0,SW,6.9,-,N/A,,Mostly Cloudy,220,2013-05-12 11:15:00
7:35 AM,35.6,30.2,81,29.82,10.0,SW,12.7,-,N/A,,Mostly Cloudy,230,2013-05-12 11:35:00
7:55 AM,37.4,30.2,75,29.82,10.0,SW,8.1,17.3,N/A,,Partly Cloudy,220,2013-05-12 11:55:00
8:15 AM,37.4,30.2,75,29.82,10.0,SW,12.7,17.3,N/A,,Mostly Cloudy,230,2013-05-12 12:15:00
8:35 AM,37.4,30.2,75,29.82,10.0,SW,11.5,17.3,N/A,,Mostly Cloudy,220,2013-05-12 12:35:00
8:55 AM,39.2,30.2,70,29.82,10.0,WSW,20.7,24.2,N/A,,Mostly Cloudy,240,2013-05-12 12:55:00
9:15 AM,41.0,30.2,65,29.82,10.0,WSW,15.0,25.3,N/A,,Mostly Cloudy,240,2013-05-12 13:15:00
9:35 AM,39.2,28.4,65,29.82,10.0,WSW,16.1,26.5,N/A,,Overcast,240,2013-05-12 13:35:00
9:55 AM,39.2,28.4,65,29.82,10.0,West,16.1,26.5,N/A,,Overcast,270,2013-05-12 13:55:00
10:15 AM,41.0,28.4,61,29.82,10.0,WSW,16.1,24.2,N/A,,Overcast,240,2013-05-12 14:15:00
10:35 AM,41.0,26.6,57,29.82,10.0,WSW,21.9,36.8,N/A,,Overcast,240,2013-05-12 14:35:00
10:55 AM,39.2,26.6,61,29.83,10.0,West,17.3,27.6,N/A,,Overcast,280,2013-05-12 14:55:00
11:15 AM,41.0,26.6,57,29.83,10.0,West,21.9,32.2,N/A,,Mostly Cloudy,270,2013-05-12 15:15:00
11:35 AM,42.8,26.6,53,29.83,10.0,WSW,27.6,34.5,N/A,,Mostly Cloudy,250,2013-05-12 15:35:00
11:55 AM,42.8,24.8,49,29.83,10.0,West,24.2,31.1,N/A,,Mostly Cloudy,260,2013-05-12 15:55:00
12:15 PM,42.8,26.6,53,29.84,10.0,West,16.1,31.1,N/A,,Mostly Cloudy,260,2013-05-12 16:15:00
12:35 PM,41.0,26.6,57,29.84,10.0,West,19.6,-,N/A,,Mostly Cloudy,280,2013-05-12 16:35:00
12:55 PM,42.8,26.6,53,29.84,10.0,West,19.6,29.9,N/A,,Mostly Cloudy,260,2013-05-12 16:55:00
1:15 PM,42.8,24.8,49,29.85,10.0,WSW,20.7,29.9,N/A,,Mostly Cloudy,250,2013-05-12 17:15:00
1:35 PM,42.8,28.4,57,29.85,10.0,West,24.2,29.9,N/A,,Overcast,260,2013-05-12 17:35:00
1:55 PM,42.8,26.6,53,29.85,10.0,West,18.4,31.1,N/A,,Overcast,270,2013-05-12 17:55:00
2:15 PM,42.8,26.6,53,29.86,10.0,West,23.0,28.8,N/A,,Overcast,260,2013-05-12 18:15:00
2:35 PM,41.0,26.6,57,29.87,10.0,West,23.0,32.2,N/A,,Mostly Cloudy,260,2013-05-12 18:35:00
2:55 PM,42.8,26.6,53,29.86,10.0,West,18.4,31.1,N/A,,Mostly Cloudy,260,2013-05-12 18:55:00
3:15 PM,42.8,26.6,53,29.86,10.0,West,23.0,31.1,N/A,,Overcast,260,2013-05-12 19:15:00
3:35 PM,42.8,24.8,49,29.86,10.0,West,23.0,32.2,N/A,,Mostly Cloudy,270,2013-05-12 19:35:00
3:55 PM,42.8,24.8,49,29.87,10.0,West,21.9,28.8,N/A,,Overcast,260,2013-05-12 19:55:00
4:15 PM,42.8,24.8,49,29.87,10.0,West,18.4,29.9,N/A,,Overcast,270,2013-05-12 20:15:00
4:35 PM,42.8,24.8,49,29.87,10.0,WSW,18.4,25.3,N/A,,Mostly Cloudy,250,2013-05-12 20:35:00
4:55 PM,42.8,26.6,53,29.88,10.0,West,24.2,31.1,N/A,,Mostly Cloudy,270,2013-05-12 20:55:00
5:15 PM,42.8,26.6,53,29.88,10.0,West,19.6,28.8,N/A,,Mostly Cloudy,270,2013-05-12 21:15:00
5:35 PM,42.8,24.8,49,29.89,10.0,West,20.7,29.9,N/A,,Mostly Cloudy,270,2013-05-12 21:35:00
5:55 PM,42.8,24.8,49,29.89,10.0,West,21.9,33.4,N/A,,Mostly Cloudy,280,2013-05-12 21:55:00
6:15 PM,42.8,24.8,49,29.90,10.0,West,25.3,33.4,N/A,,Mostly Cloudy,270,2013-05-12 22:15:00
6:35 PM,41.0,24.8,53,29.90,10.0,West,20.7,34.5,N/A,,Overcast,280,2013-05-12 22:35:00
6:55 PM,41.0,24.8,53,29.90,10.0,West,23.0,31.1,N/A,,Overcast,260,2013-05-12 22:55:00
7:15 PM,41.0,26.6,57,29.90,10.0,West,24.2,32.2,N/A,,Overcast,280,2013-05-12 23:15:00
7:35 PM,37.4,28.4,70,29.91,10.0,WNW,11.5,27.6,N/A,,Mostly Cloudy,290,2013-05-12 23:35:00
7:55 PM,37.4,30.2,75,29.91,10.0,West,17.3,24.2,N/A,,Mostly Cloudy,260,2013-05-12 23:55:00
8:15 PM,37.4,28.4,70,29.91,10.0,West,13.8,27.6,N/A,,Mostly Cloudy,270,2013-05-13 00:15:00
8:35 PM,37.4,30.2,75,29.92,10.0,West,17.3,26.5,N/A,,Mostly Cloudy,260,2013-05-13 00:35:00
8:55 PM,37.4,30.2,75,29.93,10.0,West,9.2,18.4,N/A,,Overcast,280,2013-05-13 00:55:00
9:15 PM,35.6,30.2,81,29.94,8.0,WNW,12.7,19.6,N/A,,Overcast,290,2013-05-13 01:15:00
9:35 PM,35.6,30.2,81,29.95,3.0,WNW,11.5,25.3,0.01,,Overcast,290,2013-05-13 01:35:00
9:55 PM,35.6,30.2,81,29.96,10.0,WNW,10.4,-,0.01,,Overcast,300,2013-05-13 01:55:00
10:15 PM,35.6,30.2,81,29.97,10.0,NW,13.8,18.4,N/A,,Overcast,310,2013-05-13 02:15:00
10:35 PM,35.6,28.4,75,29.98,10.0,NW,15.0,20.7,N/A,,Mostly Cloudy,310,2013-05-13 02:35:00
10:55 PM,35.6,24.8,65,29.99,10.0,WNW,17.3,24.2,N/A,,Overcast,300,2013-05-13 02:55:00
11:15 PM,35.6,24.8,65,29.98,10.0,WNW,16.1,21.9,N/A,,Overcast,300,2013-05-13 03:15:00
11:35 PM,35.6,24.8,65,29.99,10.0,WNW,15.0,19.6,N/A,,Overcast,290,2013-05-13 03:35:00
11:55 PM,35.6,24.8,65,29.98,10.0,WNW,13.8,23.0,N/A,,Overcast,290,2013-05-13 03:55:00